GW5385 Weather Reports


Display with metric or nautical units.
time (UTC)temp
F
wind
direction
speed
MPH
gust
MPH
rain 1hr
in
rain 24hr
in
rain mn
in
humidity
%
barometer
mb
20260510220021 78 238 4.0 11.0 0.00 0.00 0.00 19 1014.9
20260510214519 78 225 9.0 13.0 0.00 0.00 0.00 20 1014.9
20260510213021 77 212 6.0 10.0 0.00 0.00 0.00 23 1015.1
20260510211512 78 196 7.0 14.0 0.00 0.00 0.00 22 1015.3
20260510210009 77 222 5.0 11.0 0.00 0.00 0.00 23 1015.6
20260510204506 76 233 8.0 12.0 0.00 0.00 0.00 24 1015.9
20260510203008 75 235 3.0 13.0 0.00 0.00 0.00 25 1016.0
20260510201559 75 244 5.0 11.0 0.00 0.00 0.00 26 1016.3
20260510200058 75 155 9.0 15.0 0.00 0.00 0.00 26 1016.3
20260510194558 74 217 9.0 15.0 0.00 0.00 0.00 25 1016.5
20260510193056 74 209 6.0 13.0 0.00 0.00 0.00 26 1016.5
20260510191550 74 197 10.0 15.0 0.00 0.00 0.00 27 1016.8
20260510190053 73 215 9.0 16.0 0.00 0.00 0.00 28 1016.9
20260510184611 73 158 5.0 13.0 0.00 0.00 0.00 28 1017.0
20260510183043 72 203 2.0 15.0 0.00 0.00 0.00 30 1017.1
20260510181510 71 221 7.0 13.0 0.00 0.00 0.00 30 1017.4
20260510180008 71 199 5.0 15.0 0.00 0.00 0.00 31 1017.6
20260510174536 71 210 7.0 13.0 0.00 0.00 0.00 32 1017.8
20260510173032 70 227 7.0 12.0 0.00 0.00 0.00 33 1017.9
20260510171632 69 154 5.0 13.0 0.00 0.00 0.00 34 1018.1
20260510170104 68 205 4.0 11.0 0.00 0.00 0.00 35 1018.3
20260510164553 66 188 5.0 12.0 0.00 0.00 0.00 37 1018.4
20260510163020 65 184 6.0 10.0 0.00 0.00 0.00 38 1018.6
20260510161515 63 153 4.0 8.0 0.00 0.00 0.00 42 1018.7
20260510160011 61 167 3.0 8.0 0.00 0.00 0.00 46 1018.8
20260510154508 60 198 4.0 8.0 0.00 0.00 0.00 48 1019.0
20260510153006 59 129 2.0 6.0 0.00 0.00 0.00 53 1019.2
20260510151558 57 167 4.0 8.0 0.00 0.00 0.00 54 1019.2
20260510150109 55 217 4.0 6.0 0.00 0.00 0.00 59 1019.4
20260510144607 53 204 1.0 6.0 0.00 0.00 0.00 63 1019.6
20260510143042 51 253 0.0 3.0 0.00 0.00 0.00 65 1019.5
20260510141544 49 99 1.0 3.0 0.00 0.00 0.00 68 1019.6
20260510140031 47 101 0.0 2.0 0.00 0.00 0.00 73 1019.6
20260510134529 46 124 1.0 2.0 0.00 0.00 0.00 77 1019.8
20260510133030 44 292 0.0 0.0 0.00 0.00 0.00 80 1019.6
20260510131527 40 292 0.0 0.0 0.00 0.00 0.00 84 1019.7
20260510130025 37 292 0.0 1.0 0.00 0.00 0.00 85 1019.8
20260510124524 36 292 0.0 0.0 0.00 0.00 0.00 85 1019.8
20260510123024 35 292 0.0 0.0 0.00 0.00 0.00 85 1019.8
20260510121521 34 292 0.0 0.0 0.00 0.00 0.00 85 1019.9
20260510120018 35 292 0.0 1.0 0.00 0.00 0.00 85 1020.0
20260510114516 35 292 0.0 0.0 0.00 0.00 0.00 85 1020.0
20260510113020 35 295 0.0 0.0 0.00 0.00 0.00 85 1020.1
20260510111512 35 295 0.0 1.0 0.00 0.00 0.00 84 1020.1
20260510110015 36 298 0.0 1.0 0.00 0.00 0.00 85 1020.2
20260510104506 36 299 0.0 0.0 0.00 0.00 0.00 83 1020.3
20260510103003 36 293 0.0 0.0 0.00 0.00 0.00 82 1020.3
20260510101501 37 293 0.0 0.0 0.00 0.00 0.00 83 1020.3
20260510100058 37 286 0.0 0.0 0.00 0.00 0.00 84 1020.5
20260510094612 37 293 0.0 0.0 0.00 0.00 0.00 82 1020.3
20260510093053 38 282 0.0 0.0 0.00 0.00 0.00 81 1020.4
20260510091550 39 295 0.0 0.0 0.00 0.00 0.00 80 1020.3
20260510090045 40 295 0.0 0.0 0.00 0.00 0.00 78 1020.5
20260510084557 42 6 0.0 4.0 0.00 0.00 0.00 77 1020.6
20260510083053 41 353 0.0 0.0 0.00 0.00 0.00 79 1020.7
20260510081538 42 15 0.0 0.0 0.00 0.00 0.00 77 1020.7
20260510080034 43 15 0.0 0.0 0.00 0.00 0.00 74 1020.7
20260510074537 45 1 2.0 4.0 0.00 0.00 0.00 73 1020.7
20260510073045 46 352 3.0 4.0 0.00 0.00 0.00 73 1020.8
20260510071532 46 6 3.0 5.0 0.00 0.00 0.00 72 1020.9
20260510070058 46 35 4.0 5.0 0.00 0.00 0.00 74 1020.9
20260510064555 44 46 2.0 4.0 0.00 0.00 0.00 75 1020.9
20260510063053 43 33 0.0 2.0 0.00 0.00 0.00 76 1020.9
20260510061601 43 288 0.0 0.0 0.00 0.00 0.00 70 1020.9
20260510060048 45 288 0.0 0.0 0.00 0.00 0.00 75 1020.9
20260510054545 44 288 0.0 0.0 0.00 0.00 0.00 72 1020.8
20260510053049 45 234 0.0 0.0 0.00 0.00 0.00 68 1020.8
20260510051542 48 229 0.0 0.0 0.00 0.00 0.00 68 1020.8
20260510050039 48 229 0.0 1.0 0.00 0.00 0.00 68 1020.8
20260510044537 48 342 1.0 3.0 0.00 0.00 0.00 69 1020.8
20260510043033 49 283 0.0 1.0 0.00 0.00 0.00 65 1020.7
20260510041536 50 177 0.0 0.0 0.00 0.00 0.00 64 1020.6
20260510040030 50 160 1.0 4.0 0.00 0.00 0.00 65 1020.4
20260510034529 50 292 0.0 2.0 0.00 0.00 0.00 60 1020.4
20260510033026 52 124 0.0 3.0 0.00 0.00 0.00 59 1020.0
20260510031524 54 124 0.0 2.0 0.00 0.00 0.00 53 1019.8
20260510030032 55 105 2.0 3.0 0.00 0.00 0.00 50 1019.6
20260510024532 58 201 0.0 1.0 0.00 0.00 0.00 47 1019.4
20260510023022 59 211 1.0 3.0 0.00 0.00 0.00 46 1019.3
20260510021553 60 203 1.0 2.0 0.00 0.00 0.00 47 1019.3
20260510020052 62 212 0.0 2.0 0.00 0.00 0.00 45 1019.3
20260510014552 63 181 1.0 2.0 0.00 0.00 0.00 43 1019.2
20260510013101 63 224 1.0 3.0 0.00 0.00 0.00 42 1019.3
20260510011549 64 250 0.0 5.0 0.00 0.00 0.00 41 1019.3
20260510010048 65 195 2.0 6.0 0.00 0.00 0.00 40 1019.4
20260510004545 65 252 5.0 8.0 0.00 0.00 0.00 40 1019.4
20260510003049 65 228 0.0 6.0 0.00 0.00 0.00 41 1019.4
20260510001544 64 225 1.0 5.0 0.00 0.00 0.00 41 1019.4
20260510000044 64 262 2.0 8.0 0.00 0.00 0.00 40 1019.4
20260509234542 65 246 6.0 11.0 0.00 0.00 0.00 39 1019.3
20260509233041 65 261 1.0 8.0 0.00 0.00 0.00 39 1019.2
20260509231543 65 269 4.0 11.0 0.00 0.00 0.00 38 1019.2
20260509230042 65 236 4.0 8.0 0.00 0.00 0.00 38 1019.4
20260509224538 65 293 3.0 6.0 0.00 0.00 0.00 38 1019.4
20260509223036 65 235 2.0 7.0 0.00 0.00 0.00 37 1019.4
20260509221535 65 130 1.0 5.0 0.00 0.00 0.00 39 1019.6